2E0SQA Weather Reports


Display with metric or nautical units.
time (UTC)temp
F
wind
direction
speed
MPH
gust
MPH
rain 1hr
in
rain 24hr
in
rain mn
in
humidity
%
barometer
mb
20260505183341 52 328 0.0 0.0 0.00 0.00 0.00 72 1013.6
20260505182838 52 304 0.0 0.0 0.00 0.00 0.00 72 1013.6
20260505182339 53 25 0.0 0.0 0.00 0.00 0.00 72 1013.6
20260505181840 53 297 0.0 1.0 0.00 0.00 0.00 72 1013.6
20260505181336 53 50 0.0 1.0 0.00 0.00 0.00 71 1013.5
20260505180837 53 252 0.0 1.0 0.00 0.00 0.00 71 1013.6
20260505180339 53 27 0.0 1.0 0.00 0.00 0.00 71 1013.5
20260505175835 53 22 0.0 0.0 0.00 0.00 0.00 71 1013.4
20260505175336 53 346 0.0 1.0 0.00 0.00 0.00 71 1013.4
20260505174835 53 327 0.0 1.0 0.00 0.00 0.00 71 1013.4
20260505174333 53 295 0.0 1.0 0.00 0.00 0.00 70 1013.5
20260505173831 53 326 0.0 1.0 0.00 0.00 0.00 70 1013.4
20260505173325 54 294 0.0 1.0 0.00 0.00 0.00 70 1013.4
20260505173044 54 347 0.0 0.0 0.00 0.00 0.00 71 1013.4
20260505172314 54 259 0.0 1.0 0.00 0.00 0.00 71 1013.5
20260505171806 54 301 0.0 1.0 0.00 0.00 0.00 71 1013.5
20260505171300 54 300 0.0 0.0 0.00 0.00 0.00 70 1013.6
20260505170754 54 308 0.0 0.0 0.00 0.00 0.00 69 1013.5
20260505170249 55 322 0.0 0.0 0.00 0.00 0.00 69 1013.6
20260505165742 55 71 0.0 0.0 0.00 0.00 0.00 68 1013.5
20260505165718 55 329 0.0 0.0 0.00 0.00 0.00 66 1013.5
20260505164731 56 283 0.0 0.0 0.00 0.00 0.00 66 1013.5
20260505164441 56 280 0.0 0.0 0.00 0.00 0.00 65 1013.4
20260505163717 56 243 0.0 0.0 0.00 0.00 0.00 64 1013.4
20260505163215 57 100 0.0 0.0 0.00 0.00 0.00 63 1013.5
20260505162707 57 203 0.0 0.0 0.00 0.00 0.00 62 1013.5
20260505162201 57 81 0.0 0.0 0.00 0.00 0.00 63 1013.4
20260505161656 58 141 0.0 0.0 0.00 0.00 0.00 62 1013.4
20260505161150 58 58 0.0 0.0 0.00 0.00 0.00 62 1013.4
20260505160642 57 250 0.0 0.0 0.00 0.00 0.00 63 1013.3
20260505160138 57 149 0.0 0.0 0.00 0.00 0.00 62 1013.4
20260505153101 56 214 0.0 0.0 0.00 0.00 0.00 68 1013.4
20260505152821 56 134 0.0 0.0 0.00 0.00 0.00 69 1013.4
20260505152528 55 248 0.0 0.0 0.00 0.00 0.00 69 1013.5
20260505151543 55 323 0.0 0.0 0.00 0.00 0.00 68 1013.5
20260505151519 55 23 0.0 0.0 0.00 0.00 0.00 68 1013.6
20260505150604 55 240 0.0 0.0 0.00 0.00 0.00 69 1013.6
20260505150530 55 208 0.0 0.0 0.00 0.00 0.00 69 1013.6
20260505140639 55 297 0.0 1.0 0.00 0.00 0.00 70 1013.7
20260505130304 53 322 0.0 0.0 0.00 0.00 0.00 74 1013.9
20260505124745 53 57 0.0 0.0 0.00 0.00 0.00 74 1013.9
20260505124238 53 321 0.0 0.0 0.00 0.00 0.00 75 1013.9
20260505123733 53 27 0.0 0.0 0.00 0.00 0.00 75 1013.8
20260505123227 53 288 0.0 0.0 0.00 0.00 0.00 76 1013.8
20260505122939 53 220 0.0 0.0 0.00 0.00 0.00 75 1013.9
20260505122446 53 143 0.0 0.0 0.00 0.00 0.00 75 1013.9
20260505121708 53 127 0.0 0.0 0.00 0.00 0.00 73 1013.8
20260505121202 53 302 0.0 0.0 0.00 0.00 0.00 73 1013.9
20260505120658 53 65 0.0 0.0 0.00 0.00 0.00 72 1014.0
20260505120151 52 308 0.0 0.0 0.00 0.00 0.00 71 1014.0
20260505115647 52 308 0.0 0.0 0.00 0.00 0.00 72 1014.0
20260505115138 52 31 0.0 0.0 0.00 0.00 0.00 72 1014.0
20260505114632 52 69 0.0 0.0 0.00 0.00 0.00 73 1014.0
20260505114354 52 79 0.0 0.0 0.00 0.00 0.00 73 1014.1
20260505113846 52 65 0.0 0.0 0.00 0.00 0.00 73 1014.1
20260505113114 53 56 0.0 1.0 0.00 0.00 0.00 73 1014.2
20260505112608 53 66 0.0 1.0 0.00 0.00 0.00 72 1014.2
20260505112104 54 98 0.0 1.0 0.00 0.00 0.00 71 1014.1
20260505111557 54 322 0.0 1.0 0.00 0.00 0.00 69 1014.1
20260505111318 54 322 0.0 0.0 0.00 0.00 0.00 70 1014.0
20260505110544 53 309 0.0 0.0 0.00 0.00 0.00 71 1014.0
20260505110108 53 311 0.0 0.0 0.00 0.00 0.00 73 1014.1
20260505101951 51 294 0.0 1.0 0.00 0.00 0.00 77 1014.3
20260505101445 52 315 0.0 1.0 0.00 0.00 0.00 75 1014.3
20260505100937 53 297 0.0 0.0 0.00 0.00 0.00 73 1014.3
20260505100433 53 297 0.0 0.0 0.00 0.00 0.00 71 1014.2
20260505100156 54 271 0.0 0.0 0.00 0.00 0.00 70 1014.1
20260505095421 54 43 0.0 0.0 0.00 0.00 0.00 70 1014.1
20260505094914 54 33 0.0 0.0 0.00 0.00 0.00 72 1014.1
20260505094407 53 50 0.0 0.0 0.00 0.00 0.00 74 1014.1
20260505094127 53 269 0.0 0.0 0.00 0.00 0.00 74 1014.2
20260505093356 52 304 0.0 0.0 0.00 0.00 0.00 75 1014.2
20260505092850 52 99 0.0 0.0 0.00 0.00 0.00 77 1014.2
20260505092344 52 310 0.0 0.0 0.00 0.00 0.00 77 1014.2
20260505092057 51 329 0.0 0.0 0.00 0.00 0.00 78 1014.3
20260505091333 51 19 0.0 0.0 0.00 0.00 0.00 78 1014.3
20260505090825 51 59 0.0 0.0 0.00 0.00 0.00 80 1014.3
20260505090320 51 34 0.0 0.0 0.00 0.00 0.00 81 1014.3
20260505085814 51 61 0.0 0.0 0.00 0.00 0.00 82 1014.3
20260505085309 51 37 0.0 0.0 0.00 0.00 0.00 82 1014.3
20260505084804 51 60 0.0 0.0 0.00 0.00 0.00 83 1014.3
20260505084257 51 56 0.0 0.0 0.00 0.00 0.00 83 1014.3
20260505083751 51 61 0.0 0.0 0.00 0.00 0.00 84 1014.3
20260505083246 51 33 0.0 1.0 0.00 0.00 0.00 85 1014.3
20260505083000 51 300 0.0 1.0 0.00 0.00 0.00 85 1014.3
20260505082231 51 323 0.0 0.0 0.00 0.00 0.00 86 1014.4
20260505081727 51 308 0.0 0.0 0.00 0.00 0.00 86 1014.4
20260505081221 50 50 0.0 0.0 0.00 0.00 0.00 86 1014.4
20260505080715 50 277 0.0 0.0 0.00 0.00 0.00 86 1014.3
20260505080208 50 285 0.0 0.0 0.00 0.00 0.00 86 1014.4
20260505075703 50 217 0.0 0.0 0.00 0.00 0.00 86 1014.3
20260505075157 50 214 0.0 0.0 0.00 0.00 0.00 86 1014.3
20260505075128 50 11 0.0 0.0 0.00 0.00 0.00 86 1014.3
20260505074146 50 325 0.0 0.0 0.00 0.00 0.00 86 1014.4
20260505073638 50 321 0.0 0.0 0.00 0.00 0.00 86 1014.3
20260505073133 50 321 0.0 0.0 0.00 0.00 0.00 86 1014.2
20260505072850 50 91 0.0 0.0 0.00 0.00 0.00 86 1014.3
20260505072121 50 51 0.0 0.0 0.00 0.00 0.00 86 1014.4
20260505071615 50 49 0.0 0.0 0.00 0.00 0.00 86 1014.3
20260505071108 49 235 0.0 0.0 0.00 0.00 0.00 87 1014.3
20260505070827 49 236 0.0 0.0 0.00 0.00 0.00 87 1014.3
20260505070333 49 300 0.0 0.0 0.00 0.00 0.00 87 1014.3
20260505065552 49 287 0.0 0.0 0.00 0.00 0.00 87 1014.3
20260505065046 49 283 0.0 0.0 0.00 0.00 0.00 87 1014.3
20260505064539 49 297 0.0 0.0 0.00 0.00 0.00 87 1014.5
20260505064034 49 88 0.0 0.0 0.00 0.00 0.00 87 1014.5
20260505063526 48 288 0.0 0.0 0.00 0.00 0.00 87 1014.5
20260505063242 48 89 0.0 0.0 0.00 0.00 0.00 87 1014.5
20260505062519 48 323 0.0 0.0 0.00 0.00 0.00 86 1014.5
20260505062019 48 70 0.0 0.0 0.00 0.00 0.00 86 1014.4
20260505061518 48 56 0.0 0.0 0.00 0.00 0.00 87 1014.5
20260505061238 48 65 0.0 0.0 0.00 0.00 0.00 87 1014.5
20260505060516 48 290 0.0 0.0 0.00 0.00 0.00 87 1014.5
20260505060105 48 287 0.0 0.0 0.00 0.00 0.00 87 1014.4
20260505055517 48 233 0.0 0.0 0.00 0.00 0.00 88 1014.4
20260505055015 48 224 0.0 0.0 0.00 0.00 0.00 89 1014.5
20260505054515 48 281 0.0 0.0 0.00 0.00 0.00 90 1014.4
20260505054010 47 326 0.0 0.0 0.00 0.00 0.00 90 1014.4
20260505053739 47 240 0.0 0.0 0.00 0.00 0.00 91 1014.4
20260505053012 46 323 0.0 0.0 0.00 0.00 0.00 91 1014.3
20260505052509 46 300 0.0 0.0 0.00 0.00 0.00 92 1014.3
20260505052009 46 224 0.0 0.0 0.00 0.00 0.00 92 1014.3
20260505051509 46 224 0.0 0.0 0.00 0.00 0.00 93 1014.3
20260505051010 46 298 0.0 0.0 0.00 0.00 0.00 93 1014.3
20260505050726 45 156 0.0 0.0 0.00 0.00 0.00 93 1014.2
20260505050105 45 148 0.0 0.0 0.00 0.00 0.00 93 1014.2
20260505041444 44 238 0.0 0.0 0.00 0.00 0.00 94 1013.9
20260505040946 44 240 0.0 0.0 0.00 0.00 0.00 94 1013.9
20260505040714 44 278 0.0 0.0 0.00 0.00 0.00 94 1013.9
20260505040544 44 302 0.0 0.0 0.00 0.00 0.00 94 1013.9
20260505035442 45 276 0.0 0.0 0.00 0.00 0.00 94 1013.9
20260505034942 45 239 0.0 0.0 0.00 0.00 0.00 94 1013.9
20260505034441 45 262 0.0 0.0 0.00 0.00 0.00 94 1013.9
20260505033943 45 39 0.0 0.0 0.00 0.00 0.00 94 1014.0
20260505033441 45 258 0.0 0.0 0.00 0.00 0.00 94 1013.9
20260505032941 45 132 0.0 0.0 0.00 0.00 0.00 94 1013.9
20260505032439 45 283 0.0 0.0 0.00 0.00 0.00 94 1013.9
20260505031938 45 34 0.0 0.0 0.00 0.00 0.00 94 1013.9
20260505031430 45 304 0.0 0.0 0.00 0.00 0.00 94 1014.0
20260505030926 45 267 0.0 0.0 0.00 0.00 0.00 94 1014.0
20260505030426 45 314 0.0 0.0 0.00 0.00 0.00 94 1014.0
20260505025925 45 351 0.0 0.0 0.00 0.00 0.00 95 1014.0
20260505025423 45 295 0.0 0.0 0.00 0.00 0.00 95 1014.1
20260505024925 45 319 0.0 0.0 0.00 0.00 0.00 95 1014.0
20260505024421 45 340 0.0 0.0 0.00 0.00 0.00 95 1014.1
20260505023922 44 323 0.0 0.0 0.00 0.00 0.00 95 1014.2
20260505023646 44 267 0.0 0.0 0.00 0.00 0.00 95 1014.2
20260505022921 44 277 0.0 0.0 0.00 0.00 0.00 94 1014.2
20260505022637 44 215 0.0 0.0 0.00 0.00 0.00 94 1014.2
20260505021915 44 215 0.0 0.0 0.00 0.00 0.00 94 1014.2
20260505021415 44 215 0.0 0.0 0.00 0.00 0.00 94 1014.3
20260505020914 44 215 0.0 0.0 0.00 0.00 0.00 94 1014.3
20260505020411 44 177 0.0 0.0 0.00 0.00 0.00 93 1014.2
20260505015912 44 177 0.0 0.0 0.00 0.00 0.00 93 1014.3
20260505015640 44 177 0.0 0.0 0.00 0.00 0.00 93 1014.3
20260505014909 44 177 0.0 0.0 0.00 0.00 0.00 93 1014.3
20260505014403 44 218 0.0 0.0 0.00 0.00 0.00 93 1014.4
20260505014119 44 217 0.0 0.0 0.00 0.00 0.00 93 1014.4
20260505013351 44 217 0.0 0.0 0.00 0.00 0.00 93 1014.5
20260505013105 45 217 0.0 0.0 0.00 0.00 0.00 93 1014.5
20260505012338 45 122 0.0 0.0 0.00 0.00 0.00 93 1014.5
20260505011833 45 253 0.0 0.0 0.00 0.00 0.00 93 1014.6
20260505011549 44 265 0.0 0.0 0.00 0.00 0.00 93 1014.6
20260505010821 44 266 0.0 0.0 0.00 0.00 0.00 93 1014.5
20260505010315 44 239 0.0 0.0 0.00 0.00 0.00 92 1014.5
20260505005810 44 239 0.0 0.0 0.00 0.00 0.00 92 1014.6
20260505005311 44 239 0.0 0.0 0.00 0.00 0.00 92 1014.6
20260505004809 44 239 0.0 0.0 0.00 0.00 0.00 92 1014.7
20260505004307 44 238 0.0 0.0 0.00 0.00 0.00 92 1014.8
20260505004259 45 239 0.0 0.0 0.00 0.00 0.00 92 1014.8
20260505003305 45 239 0.0 0.0 0.00 0.00 0.00 91 1014.8
20260505002803 45 239 0.0 0.0 0.00 0.00 0.00 91 1014.8
20260505002304 45 239 0.0 0.0 0.00 0.00 0.00 92 1014.9
20260505001802 46 240 0.0 0.0 0.00 0.00 0.00 91 1014.9
20260505001301 46 239 0.0 0.0 0.00 0.00 0.00 91 1014.9
20260505001018 46 226 0.0 0.0 0.00 0.00 0.00 91 1014.9
20260505000259 46 226 0.0 0.0 0.00 0.00 0.00 91 1014.9
20260505000107 46 226 0.0 0.0 0.00 0.00 0.00 91 1014.9
20260504235259 46 226 0.0 0.0 0.00 0.00 0.00 90 1015.0
20260504234759 46 226 0.0 0.0 0.00 0.00 0.00 90 1014.9
20260504234257 46 226 0.0 0.0 0.00 0.00 0.00 90 1015.0
20260504234023 46 225 0.0 0.0 0.00 0.00 0.00 89 1015.0
20260504233252 47 236 0.0 0.0 0.00 0.00 0.00 89 1015.0
20260504232753 47 239 0.0 0.0 0.00 0.00 0.00 89 1015.1
20260504232520 47 187 0.0 0.0 0.00 0.00 0.00 89 1015.0
20260504231755 47 187 0.0 0.0 0.00 0.00 0.00 89 1015.0
20260504231252 47 8 0.0 0.0 0.00 0.00 0.00 89 1014.9
20260504230751 47 224 0.0 0.0 0.00 0.00 0.00 89 1015.0
20260504230253 47 224 0.0 0.0 0.00 0.00 0.00 89 1015.0
20260504225751 47 335 0.0 0.0 0.00 0.00 0.00 89 1015.0
20260504225251 46 274 0.0 0.0 0.00 0.00 0.00 89 1015.0
20260504224746 46 253 0.0 0.0 0.00 0.00 0.00 89 1014.9
20260504224245 46 233 0.0 0.0 0.00 0.00 0.00 89 1015.0
20260504223741 46 233 0.0 0.0 0.00 0.00 0.00 88 1015.1
20260504223241 46 233 0.0 0.0 0.00 0.00 0.00 88 1015.1
20260504222741 46 233 0.0 0.0 0.00 0.00 0.00 88 1015.2
20260504222239 46 233 0.0 0.0 0.00 0.00 0.00 88 1015.2
20260504221737 47 233 0.0 0.0 0.00 0.00 0.00 87 1015.2
20260504221235 47 232 0.0 0.0 0.00 0.00 0.00 87 1015.2
20260504220736 47 233 0.0 0.0 0.00 0.00 0.00 86 1015.3
20260504220232 47 233 0.0 0.0 0.00 0.00 0.00 86 1015.3
20260504215732 47 233 0.0 0.0 0.00 0.00 0.00 86 1015.3
20260504215234 47 240 0.0 0.0 0.00 0.00 0.00 86 1015.3
20260504214732 47 242 0.0 0.0 0.00 0.00 0.00 86 1015.2
20260504214227 47 243 0.0 0.0 0.00 0.00 0.00 86 1015.3
20260504213722 47 236 0.0 0.0 0.00 0.00 0.00 85 1015.3
20260504213224 47 252 0.0 0.0 0.00 0.00 0.00 84 1015.3
20260504212721 47 245 0.0 0.0 0.00 0.00 0.00 84 1015.3
20260504212219 48 245 0.0 0.0 0.00 0.00 0.00 83 1015.3
20260504211718 48 245 0.0 0.0 0.00 0.00 0.00 83 1015.3
20260504211214 48 245 0.0 0.0 0.00 0.00 0.00 83 1015.3
20260504210715 49 244 0.0 0.0 0.00 0.00 0.00 82 1015.3
20260504210435 49 245 0.0 0.0 0.00 0.00 0.00 83 1015.3
20260504205714 49 243 0.0 0.0 0.00 0.00 0.00 83 1015.4
20260504205214 49 315 0.0 0.0 0.00 0.00 0.00 83 1015.3
20260504204713 49 297 0.0 0.0 0.00 0.00 0.00 83 1015.3
20260504204211 49 333 0.0 0.0 0.00 0.00 0.00 82 1015.3
20260504203933 49 4 0.0 0.0 0.00 0.00 0.00 82 1015.2
20260504203210 50 255 0.0 0.0 0.00 0.00 0.00 82 1015.3
20260504202711 50 244 0.0 0.0 0.00 0.00 0.00 82 1015.2
20260504202211 50 62 0.0 0.0 0.00 0.00 0.00 82 1015.1
20260504201712 50 246 0.0 0.0 0.00 0.00 0.00 81 1015.1
20260504201211 51 256 0.0 0.0 0.00 0.00 0.00 81 1015.1
20260504200710 51 194 0.0 0.0 0.00 0.00 0.00 81 1015.2
20260504200209 51 219 0.0 1.0 0.00 0.00 0.00 81 1015.1
20260504195708 51 13 0.0 1.0 0.00 0.00 0.00 80 1015.0
20260504195205 51 325 0.0 0.0 0.00 0.00 0.00 80 1014.9
20260504194708 51 306 0.0 0.0 0.00 0.00 0.00 80 1014.9
20260504194202 52 300 0.0 0.0 0.00 0.00 0.00 80 1014.9
20260504193925 52 323 0.0 0.0 0.00 0.00 0.00 79 1014.9
20260504193203 52 26 0.0 0.0 0.00 0.00 0.00 79 1014.9
20260504192702 52 358 0.0 1.0 0.00 0.00 0.00 79 1014.8
20260504192202 53 33 0.0 1.0 0.00 0.00 0.00 79 1014.8
20260504191703 53 167 0.0 1.0 0.00 0.00 0.00 78 1014.8
20260504191159 53 322 0.0 1.0 0.00 0.00 0.00 79 1014.8
20260504190924 53 297 0.0 1.0 0.00 0.00 0.00 79 1014.7
20260504190423 53 6 0.0 1.0 0.00 0.00 0.00 79 1014.8
20260504185700 53 236 0.0 0.0 0.00 0.00 0.00 79 1014.7
20260504185159 54 37 0.0 0.0 0.00 0.00 0.00 79 1014.7
20260504184659 54 328 0.0 0.0 0.00 0.00 0.00 79 1014.7
20260504184158 54 311 0.0 0.0 0.00 0.00 0.00 79 1014.7